Weather History for KPOB - January, 2013

Change the Weather History Date:

Monday, January 7, 2013

  Actual Average Record
Temperature  
Mean Temperature 41 °F -  
Max Temperature 52 °F 55 °F 77 °F (1998)
Min Temperature 29 °F 37 °F 11 °F (2014)
Degree Days  
Heating Degree Days 24    
Moisture  
Dew Point 34 °F    
Average Humidity 84    
Maximum Humidity 100    
Minimum Humidity 44    
Precipitation  
Precipitation 0.00 in - - ()
Sea Level Pressure  
Sea Level Pressure 30.32 in    
Wind  
Wind Speed 2 mph (NE)    
Max Wind Speed 14 mph    
Max Gust Speed -    
Visibility 9 miles    
Events      
Averages and records for this station are not official NWS values.
T = Trace of Precipitation, MM = Missing Value Source: NWS Daily Summary

Daily Weather History Graph

Daily Weather History Graph

Search for Another Location

Airport or City:

Trip Planner

Search our weather history database for the weather conditions in past years. The results will help you decide how hot, cold, wet, or windy it might be!

Date:

Astronomy

Jan. 07, 2013 Rise Set
Actual Time 7:25 AM EST 5:20 PM EST
Civil Twilight 6:57 AM EST 5:48 PM EST
Nautical Twilight 6:25 AM EST 6:19 PM EST
Astronomical Twilight 5:54 AM EST 6:50 PM EST
Moon 2:49 AM EST (1/7) 1:27 PM EST (1/7)
Length of Visible Light 10h 50m
Length of Day
9h 55m
Waning Crescent, 23% of the Moon is Illuminated
Jan 7
Waning Crescent
Jan 11
New
Jan 18
First Quarter
Jan 26
Full
Feb 3
Last Quarter

Hourly Weather History & Observations

Time (EST) Temp. Windchill Dew Point Humidity Pressure Visibility Wind Dir Wind Speed Gust Speed Precip Events Conditions
12:08 AM 39.2 °F - 39.2 °F 100% 30.20 in 9.0 mi Calm Calm - N/A   Overcast
12:55 AM 40.5 °F 37.3 °F 40.1 °F 99% 30.21 in 10.0 mi West 4.6 mph - N/A   Overcast
1:55 AM 39.2 °F - 38.5 °F 97% 30.22 in 10.0 mi Calm Calm - N/A   Mostly Cloudy
2:55 AM 37.9 °F - 37.4 °F 98% 30.23 in 9.0 mi Calm Calm - N/A   Clear
3:00 AM 37.4 °F - 37.4 °F 100% 30.22 in 6.0 mi Calm Calm - N/A   Clear
3:06 AM 37.4 °F - 37.4 °F 100% 30.23 in 4.0 mi Calm Calm - N/A   Clear
3:07 AM 37.4 °F - 37.4 °F 100% 30.23 in 4.0 mi Calm Calm - N/A   Clear
3:08 AM 37.4 °F 34.9 °F 37.4 °F 100% 30.23 in 4.0 mi SW 3.5 mph - N/A   Clear
3:12 AM 37.4 °F 34.9 °F 37.4 °F 100% 30.23 in 5.0 mi SW 3.5 mph - N/A   Clear
3:15 AM 37.4 °F - 37.4 °F 100% 30.23 in 6.0 mi Calm Calm - N/A   Clear
3:34 AM 33.8 °F - 33.8 °F 100% 30.23 in 7.0 mi Calm Calm - N/A   Clear
3:40 AM 33.8 °F 30.8 °F 33.8 °F 100% 30.23 in 8.0 mi WSW 3.5 mph - N/A   Clear
3:55 AM 34.0 °F - 33.6 °F 99% 30.24 in 7.0 mi Calm Calm - N/A   Clear
4:03 AM 33.8 °F - 33.8 °F 100% 30.23 in 8.0 mi Calm Calm - N/A   Clear
4:55 AM 33.6 °F - 33.3 °F 99% 30.25 in 9.0 mi Calm Calm - N/A   Clear
5:55 AM 32.0 °F - 31.3 °F 97% 30.27 in 10.0 mi Calm Calm - N/A   Clear
6:55 AM 31.5 °F - 30.9 °F 98% 30.31 in 10.0 mi Calm Calm - N/A   Clear
7:55 AM 31.1 °F - 30.4 °F 97% 30.35 in 10.0 mi Calm Calm - N/A   Clear
8:55 AM 37.8 °F 35.3 °F 33.3 °F 84% 30.39 in 10.0 mi Variable 3.5 mph - N/A   Clear
9:55 AM 45.5 °F 39.2 °F 33.6 °F 63% 30.40 in 10.0 mi NE 13.8 mph - N/A   Clear
10:55 AM 48.7 °F - 32.5 °F 54% 30.41 in 10.0 mi NE 10.4 mph - N/A   Clear
11:55 AM 51.4 °F - 32.0 °F 47% 30.40 in 10.0 mi ENE 9.2 mph - N/A   Clear
12:55 PM 52.5 °F - 31.1 °F 44% 30.38 in 10.0 mi NE 8.1 mph - N/A   Clear
1:55 PM 52.5 °F - 31.3 °F 44% 30.38 in 10.0 mi ENE 3.5 mph - N/A   Clear
2:55 PM 52.7 °F - 31.8 °F 45% 30.39 in 10.0 mi Variable 3.5 mph - N/A   Clear
3:55 PM 52.2 °F - 31.6 °F 46% 30.40 in 10.0 mi Calm Calm - N/A   Clear
4:55 PM 50.7 °F - 31.6 °F 48% 30.40 in 10.0 mi East 4.6 mph - N/A   Clear
5:55 PM 43.9 °F - 33.3 °F 66% 30.42 in 10.0 mi Calm Calm - N/A   Clear
6:55 PM 38.1 °F - 33.1 °F 82% 30.44 in 10.0 mi Calm Calm - N/A   Clear
7:55 PM 35.2 °F - 32.5 °F 90% 30.44 in 10.0 mi Calm Calm - N/A   Clear
8:55 PM 31.8 °F - 30.2 °F 94% 30.44 in 10.0 mi Calm Calm - N/A   Clear
9:55 PM 32.0 °F - 30.0 °F 92% 30.45 in 10.0 mi Calm Calm - N/A   Clear
10:55 PM 30.4 °F - 28.9 °F 94% 30.43 in 10.0 mi Calm Calm - N/A   Clear
11:55 PM 29.1 °F - 27.7 °F 94% 30.43 in 10.0 mi Calm Calm - N/A   Clear